Location: Moscow
(55.7500°N, 37.5830°E)
Time: 05:12:01
(UTC+03:00)

Transit 4A - Pass Details

Date: 03 December 2021
Orbit: 863 x 981 km, 66.8° (Epoch: 26 January)

Event Time Altitude Azimuth Distance (km) Brightness Sun altitude
Exits shadow 04:27:49 27° 154° (SSE) 1,761 9.4 -33.7°
Drops below altitude 10° 04:30:32 10° 150° (SSE) 2,713 10.5 -33.3°
Sets 04:33:06 0° 148° (SSE) 3,666 11.3 -33.0°
